Location: Most
(50.5330°N, 13.6500°E)
Time: 05:34:09
(UTC+01:00)

N. Korean satellite - Pass Details

Date: 26 October 2021
Orbit: 446 x 495 km, 97.3° (Epoch: 04 December)

Event Time Altitude Azimuth Distance (km) Brightness Sun altitude
Rises 06:35:32 0° 12° (NNE) 2,599 10.4 -11.8°
Reaches altitude 10° 06:37:38 10° 11° (NNE) 1,708 9.4 -11.5°
Maximum altitude 06:41:19 82° 284° (WNW) 505 6.5 -10.9°
Drops below altitude 10° 06:44:56 10° 197° (SSW) 1,677 9.2 -10.3°
Sets 06:46:58 0° 197° (SSW) 2,546 10.1 -10.0°
